CZ-6A DEB

Satellite information

Favourite Embed

Satellite Type and Status

DEBRISIN ORBIT

Key statistics

Satellite CZ-6A DEB at a glance.

Uptime

494

Days in orbit

Revolutions

≈ 14.2

Per day

Orbit

LEO

Low Earth Orbit

Inclination

89.1

Latest

Satellite identification and parameters

Extended collection of information and parameters for CZ-6A DEB.

Object identification

Identified? True

Debris? True

Object name: CZ-6A DEB

International designator: 2024-140ABU

Object number (NORAD): 61804

Object ID (CCSDS): 61804

Country: PEOPLES REPUBLIC OF CHINA (PRC)

Current information (Y/N): Y

RCS size: SMALL

Orbital parameters

Period: 101.092 minutes

Inclination: 89.093 deg

SMA: 7188.48 km

Apoapsis: 863.817 km

Periapsis: 756.873 km

RAAN: 301.2319 deg

Eccentricy: 0.0074386

Argument of periapsis: 66.9846 deg

Mean anomaly: 293.917 deg

Mean motion: 14.24449869 rev/day

Mean motion (dot): 0.00017716 rev/day2

B* drag term: 0.0074171 1/REarth

Two-line elements (TLE)

Creation date: Dec. 12, 2025, 7:26 a.m.

Reference frame: TEME

Reference center: EARTH

Epoch: Dec. 11, 2025, 8:51 p.m. UTC

TLE line 0: 0 CZ-6A DEB

TLE line 1: 1 61804U 24140ABU 25345.86930752 .00017716 00000-0 74171-2 0 9993

TLE line 2: 2 61804 89.0930 301.2319 0074386 66.9846 293.9170 14.24449869 64918

Live tracking on map

Real-time ground track for satellite CZ-6A DEB.

In-orbit conjunctions

A list of the most updated potential collisions computed for object CZ-6A DEB.

Target Orbit TCA Probability of collision Miss distance Type
METEOR 1-11 LEO 2025-12-03 20:29:16 0.0005262662 590.0 (m) PAYLOAD
COSMOS 970 DEB LEO 2025-02-17 07:52:56 0.00032652 368.0 (m) DEBRIS
IRIDIUM 33 DEB LEO 2025-01-23 05:41:13 0.0001453249 293.0 (m) DEBRIS
SCOUT X-4 DEB SSO 2024-11-16 04:04:56 0.0005432793 270.0 (m) DEBRIS
SCOUT X-4 DEB SSO 2024-11-09 23:04:43 0.0008839913 245.0 (m) DEBRIS

Associated space launch

18 Low Earth Orbit communication satellites with Ku, Q and V band payloads for the G60 constellation operated by Shanghai Spacecom Satellite Technology (SSST) with funding backed by the Shanghai local government. Initial constellation will consist of 1296 satellites by 2027 with long term plans to expand it to 12000 satellites.

CZ-6A DEB was lifted into orbit during the mission ‘Long March 6A | G60 Polar Group 01’, on board a Long March 6A space rocket.

The launch took place on Aug. 6, 2024, 6:42 a.m. from Launch Complex 9A.

For more information about the launch, click the button.

Launch to space Long March 6A | G60 Polar Group 01
Long March 6A | G60 Polar Group 01

Agency: N/A

Status: Launch Successful

Launch date: Aug. 6, 2024, 6:42 a.m. UTC

Rocket: Long March 6A

Launch pad: Launch Complex 9A

Location: Taiyuan Satellite Launch Center, People's Republic of China

...

Latest news about this satellite

News about space launch
Brightness of first Chinese broadband constellation satellites alarms astronomers

The first satellites of a Chinese broadband constellation are significantly brighter than those of Western systems, posing a new challenge for astronomers.

News about space launch
Chinese rocket stage breaks up into cloud of more than 700 pieces of space debris

HELSINKI — A Chinese Long March 6A rocket’s upper stage has fragmented into a cloud of over 700 pieces of space debris, adding to concerns about long-term orbital safety. China […]

News about space launch
China's Thousand Sails Megaconstellation Kicks Off with Dangerous Debris Field

China's Thousand Sails Megaconstellation Kicks Off with Dangerous Debris Field


Newsletter sign-up

Weekly statistics, charts and insights to help you stay on top of the space industry.